Flag for U.S.A. Weather past 2 weeks in Freehold, New Jersey, U.S.A.

Now
73 °F

Clear.


Feels Like: 74 °F
Forecast: 71 / 91 °F
Wind: 3 mph from West

Location: Belmar-Farmdale

Current Time: Jul 29, 2015 at 1:35:23 AM

Latest Report: Jul 29, 2015 at 12:55 AM


Visibility: 10 mi

Pressure: 30.00 "Hg

Humidity: 78%

Dew point: 66 °F

Location of FreeholdLocation

Historic Weather in Freehold — Graph

°F

Freehold temperature yesterday

Maximum temperature yesterday: 90 °F (at 1:15 PM)
Minimum temperature yesterday: 70 °F (at 4:15 AM)
Average temperature yesterday: 79 °F

Past Weeks' High & Low Weather Summary

 TemperatureHumidityPressure
High93 °F (Jul 20, 2:15 PM)89% (Jul 14, 1:55 PM)30.13 "Hg (Jul 14, 1:55 PM)
Low59 °F (Jul 17, 5:15 AM)35% (Jul 22, 3:35 PM)29.55 "Hg (Jul 14, 6:55 PM)
Average76 °F64%29.88 "Hg
* Reported Jul 14 12:35 AM — Jul 29 12:55 AM, Freehold, Weather by CustomWeather, © 2015

Note: Actual official high and low records may vary slightly from our data, if they occured in-between our weather recording intervals... More about our weather records

Advertising

Freehold weather history for previous 24 hours

 ConditionsComfort  
Time TempWeatherWind HumidityBarometerVisibility
12:55 AM
Wed, Jul 29
73 °FClear.3 mph78%30.00 "Hg10 mi
12:35 AM75 °FClear.3 mph74%29.99 "Hg10 mi
11:55 PM
Tue, Jul 28
75 °FClear.6 mph74%29.99 "Hg10 mi
11:15 PM77 °FClear.6 mph74%29.99 "Hg10 mi
10:55 PM77 °FClear.3 mph74%29.99 "Hg10 mi
10:35 PM77 °FClear.5 mph74%29.99 "Hg10 mi
10:15 PM79 °FClear.6 mph74%29.99 "Hg10 mi
9:55 PM79 °FClear.6 mph74%29.99 "Hg10 mi
9:35 PM79 °FClear.6 mph74%29.98 "Hg10 mi
8:55 PM81 °FSunny.6 mph66%29.97 "Hg10 mi
8:35 PM81 °FSunny.8 mph66%29.97 "Hg10 mi
8:15 PM82 °FSunny.7 mph58%29.97 "Hg10 mi
7:55 PM82 °FSunny.5 mph62%29.97 "Hg10 mi
7:35 PM82 °FPassing clouds.6 mph66%29.97 "Hg10 mi
7:15 PM82 °FPassing clouds.3 mph66%29.97 "Hg10 mi
6:55 PM84 °FPassing clouds.7 mph62%29.95 "Hg10 mi
6:15 PM84 °FPassing clouds.6 mph58%29.95 "Hg10 mi
5:55 PM84 °FScattered clouds.8 mph62%29.96 "Hg10 mi
5:35 PM86 °FScattered clouds.9 mph59%29.96 "Hg10 mi
5:15 PM86 °FSunny.8 mph59%29.96 "Hg10 mi
4:55 PM88 °FSunny.9 mph55%29.96 "Hg10 mi
4:35 PM88 °FSunny.8 mph55%29.96 "Hg10 mi
4:15 PM88 °FSunny.9 mph55%29.97 "Hg10 mi
3:55 PM88 °FSunny.9 mph55%29.97 "Hg10 mi
3:35 PM88 °FSunny.8 mph55%29.96 "Hg10 mi
3:15 PM88 °FSunny.8 mph59%29.96 "Hg10 mi
2:55 PM88 °FPassing clouds.8 mph59%29.97 "Hg10 mi
2:35 PM84 °FBroken clouds.9 mph62%29.97 "Hg10 mi
2:15 PM84 °FMostly cloudy.8 mph62%29.98 "Hg10 mi
1:55 PM88 °FBroken clouds.10 mph55%29.98 "Hg10 mi
1:35 PM88 °FPartly sunny.3 mph52%29.98 "Hg10 mi
1:15 PM90 °FPassing clouds.6 mph46%29.98 "Hg10 mi
12:55 PM88 °FScattered clouds.5 mph49%29.98 "Hg10 mi
12:35 PM88 °FPartly sunny.No wind52%29.99 "Hg10 mi
12:15 PM88 °FPassing clouds.No wind52%30.00 "Hg10 mi
11:55 AM84 °FPartly sunny.3 mph58%30.00 "Hg10 mi
11:35 AM84 °FScattered clouds.No wind58%30.00 "Hg10 mi
11:15 AM84 °FScattered clouds.No wind62%30.00 "Hg10 mi
10:55 AM84 °FBroken clouds.3 mph62%30.00 "Hg10 mi
10:35 AM82 °FScattered clouds.6 mph66%30.00 "Hg10 mi
10:15 AM82 °FSunny.No wind66%30.00 "Hg10 mi
9:55 AM82 °FSunny.No wind66%30.01 "Hg10 mi
9:35 AM79 °FPassing clouds.6 mph74%30.01 "Hg10 mi
9:15 AM77 °FPassing clouds.5 mph79%30.02 "Hg9 mi
8:55 AM75 °FSunny.3 mph83%30.03 "Hg10 mi
8:35 AM75 °FSunny.3 mph78%30.03 "Hg10 mi
8:15 AM73 °FSunny.5 mph78%30.03 "Hg10 mi
7:55 AM73 °FSunny.No wind78%30.03 "Hg10 mi
7:35 AM72 °FSunny.No wind83%30.03 "Hg10 mi
7:15 AM72 °FSunny.No wind83%30.02 "Hg10 mi
6:55 AM72 °FSunny.No wind83%30.02 "Hg8 mi
6:35 AM72 °FPassing clouds.No wind78%30.01 "Hg4 mi
6:15 AM70 °FPassing clouds.No wind83%30.01 "Hg6 mi
5:55 AM72 °FClear.3 mph78%30.01 "Hg8 mi
5:35 AM70 °FClear.3 mph83%30.01 "Hg5 mi
5:15 AM70 °FClear.No wind83%30.01 "Hg7 mi
4:55 AM72 °FClear.No wind78%30.01 "Hg8 mi
4:35 AM72 °FClear.3 mph78%30.01 "Hg9 mi
4:15 AM70 °FClear.No wind83%30.01 "Hg9 mi
3:55 AM72 °FClear.3 mph78%30.01 "Hg10 mi
3:35 AM72 °FClear.No wind78%30.01 "Hg10 mi
3:15 AM72 °FClear.3 mph78%30.01 "Hg10 mi
2:55 AM72 °FClear.No wind78%30.01 "Hg10 mi
2:35 AM72 °FClear.3 mph78%30.02 "Hg10 mi
2:15 AM72 °FClear.3 mph78%30.02 "Hg10 mi
1:55 AM72 °FClear.No wind78%30.02 "Hg10 mi
1:35 AM72 °FClear.No wind83%30.03 "Hg10 mi
1:15 AM72 °FClear.No wind83%30.03 "Hg10 mi
Weather by CustomWeather, © 2015

See weather overviewHow to use our weather pages